Location: Nairn
(57.5833°N, 3.8667°W)
Time: 02:30:48
(UTC+00:00)

Transit 2A - Pass Details

Date: 28 November 2020
Orbit: 598 x 960 km, 66.7° (Epoch: 20 January)

Event Time Altitude Azimuth Distance (km) Brightness Sun altitude
Rises 17:41:35 0° 195° (SSW) 3,622 9.9 -15.1°
Reaches altitude 10° 17:44:18 10° 188° (S) 2,662 9.1 -15.5°
Maximum altitude 17:50:05 41° 121° (ESE) 1,294 6.8 -16.2°
Enters shadow 17:52:51 26° 70° (ENE) 1,684 7.1 -16.6°
